GFSFLT2_sfc_rhum_033.txt.gz
RH
66 66 85 94 92 91 90 90 89 87 85 82 81 82 82 78 77 76 75 76 71 70 73 74 73 73 74 76 77 76 37 24
72 68 54 65 66 91 90 89 88 87 83 82 81 78 76 78 80 75 77 73 71 69 70 69 71 70 67 64 66 66 26 22
58 43 46 49 54 71 83 88 87 84 77 79 76 40 46 49 77 79 75 73 69 65 63 60 63 68 61 55 64 26 25 23
39 46 47 42 33 47 45 48 45 47 46 49 45 46 52 45 60 78 72 68 67 60 60 52 46 28 27 41 27 30 23 23
41 50 50 39 40 36 37 45 44 46 51 54 58 47 51 48 41 40 42 57 36 37 33 30 37 34 32 34 32 31 26 24
43 48 48 45 36 35 38 42 47 52 57 57 54 56 53 46 35 36 41 33 39 34 32 38 37 35 35 36 35 32 27 27
39 43 47 46 45 44 47 51 56 60 63 58 48 51 63 46 43 36 38 35 34 37 36 38 40 35 34 34 34 35 34 29
39 40 45 46 49 58 68 65 56 55 61 66 74 74 72 47 46 38 36 41 40 39 42 37 35 34 34 34 33 29 28 31
41 48 48 52 58 53 53 52 56 67 67 74 70 68 69 63 58 63 51 50 46 40 40 37 36 31 32 29 27 26 24 24
45 44 50 58 57 51 58 83 77 72 77 69 63 70 75 72 74 60 47 44 42 44 39 36 34 33 32 29 24 22 25 26
50 53 62 70 84 90 87 81 77 68 64 65 66 58 57 53 46 45 45 40 42 40 39 39 36 32 25 25 29 23 26 20
52 57 65 74 78 85 70 68 62 59 51 47 50 43 45 42 43 48 43 38 39 42 45 36 33 30 23 29 32 27 25 30
54 67 68 63 56 54 54 55 46 48 43 45 45 41 41 43 38 41 42 37 43 44 40 40 35 34 34 32 32 35 32 28
62 63 62 54 45 45 43 42 42 38 38 43 40 41 39 38 44 39 39 38 39 39 45 42 37 36 40 37 40 32 26 29
65 60 58 48 42 39 39 41 42 39 40 39 38 40 37 38 39 40 39 36 34 41 42 44 42 39 39 39 42 41 36 30
53 49 43 40 39 38 41 35 36 36 36 36 38 40 38 35 34 38 41 40 43 41 34 44 44 43 37 30 37 37 40 40
42 41 36 38 39 37 40 38 40 39 39 43 42 40 39 34 35 40 43 40 42 45 47 46 41 42 40 37 37 34 36 39
44 37 35 38 39 41 42 46 40 37 36 35 28 28 28 31 31 37 41 41 43 43 45 47 46 50 48 46 43 42 44 48
43 35 36 39 42 43 44 41 37 34 31 30 33 31 30 32 36 41 38 40 40 41 52 54 50 54 59 55 42 47 44 41
37 36 37 40 40 37 34 30 30 30 32 33 30 31 32 36 36 36 38 38 38 41 48 53 54 58 61 54 46 53 48 45

GFSFLT2_sfc_rhum_036.txt.gz
RH
88 84 93 92 91 92 92 89 87 85 84 84 84 84 83 82 82 79 76 74 72 71 73 73 73 69 62 62 69 70 59 44
90 84 79 82 80 91 90 89 87 84 82 81 81 78 80 81 78 80 78 72 70 65 63 62 65 65 63 58 66 54 36 37
83 67 70 74 79 83 88 88 85 82 80 80 82 62 70 64 80 81 77 73 66 59 61 56 69 64 64 62 56 40 40 39
69 68 65 65 49 73 73 70 68 66 64 74 81 76 70 58 73 77 74 68 63 58 56 61 54 47 47 55 48 48 42 40
58 69 66 52 53 56 58 62 65 70 73 75 71 71 73 82 76 66 76 72 65 58 53 51 52 56 54 56 52 47 48 44
56 60 64 63 53 53 63 68 81 82 73 69 78 82 75 68 68 64 62 62 56 60 60 61 57 53 50 55 53 52 51 48
55 60 63 64 66 68 72 82 75 82 76 74 80 80 84 73 68 65 63 62 62 60 60 55 57 51 52 51 46 46 42 46
56 56 65 60 73 78 84 87 85 79 81 85 82 84 83 77 70 69 66 64 63 59 61 63 58 54 46 46 47 44 38 43
52 60 61 72 71 69 69 70 72 84 84 86 80 79 79 78 76 76 69 65 65 63 61 58 55 47 48 45 46 37 38 43
53 52 69 68 69 66 69 83 83 83 86 81 82 76 76 80 76 74 68 69 64 66 63 60 58 56 53 48 48 40 36 41
55 65 74 78 88 92 92 88 80 76 78 76 73 70 70 71 70 72 69 66 65 61 65 65 58 53 39 40 52 49 45 32
57 70 82 87 86 84 76 76 73 74 71 66 62 60 63 65 68 69 66 62 65 67 68 62 61 59 37 41 50 54 44 48
64 77 81 78 72 74 70 73 65 66 60 61 61 59 55 58 64 62 60 64 63 60 62 64 65 62 59 54 55 48 44 48
73 72 77 67 59 63 65 63 62 59 59 61 57 57 54 56 60 60 61 61 60 63 65 69 65 65 66 64 62 53 50 41
74 73 71 66 64 54 56 58 63 59 60 61 58 54 51 51 54 56 60 61 64 67 66 65 68 65 64 66 64 65 53 53
71 71 62 61 56 54 59 54 56 56 57 57 56 55 52 47 48 53 60 64 66 68 53 69 67 70 65 50 62 63 62 58
73 66 59 55 51 54 59 58 62 60 62 64 59 64 58 52 52 57 61 65 67 69 70 71 69 72 68 70 68 65 59 67
72 66 48 50 52 53 58 61 58 61 60 61 56 52 51 52 51 62 63 64 66 68 67 67 71 74 73 76 74 72 69 66
56 46 45 50 55 56 60 60 54 50 49 50 51 50 53 58 58 59 60 59 61 64 67 71 73 75 78 83 80 72 62 63
51 43 44 48 56 56 55 50 50 46 54 52 50 51 55 52 51 54 54 55 58 61 68 70 71 77 76 82 81 73 68 67

GFSFLT2_sfc_rhum_039.txt.gz
RH
87 92 91 93 92 89 88 86 85 84 85 84 83 84 84 83 83 81 76 75 70 68 67 67 66 65 69 70 66 65 50 61
97 94 86 88 87 89 87 86 86 85 83 82 82 82 82 79 82 82 78 72 63 58 56 61 63 58 72 68 65 60 50 69
95 89 82 91 90 85 85 83 82 82 80 80 82 79 79 73 80 80 75 69 60 58 53 66 69 67 67 67 64 51 50 68
94 86 82 80 70 86 85 73 76 76 75 79 82 82 78 64 79 78 74 68 60 61 56 61 62 55 55 63 56 50 51 54
86 77 73 66 71 77 76 77 79 79 80 82 85 79 81 84 84 78 81 72 64 60 60 61 53 60 57 61 59 57 60 55
68 70 64 60 67 70 72 82 87 89 85 79 82 92 94 84 78 72 76 75 69 67 66 59 62 57 57 54 54 50 49 52
61 64 53 58 70 79 79 92 90 90 89 84 85 83 87 79 80 76 71 67 64 63 64 65 62 55 50 48 49 46 39 43
65 64 65 74 86 88 94 94 93 94 96 92 87 89 84 80 77 73 68 65 68 68 67 63 60 55 51 49 48 43 40 41
66 69 78 81 81 75 78 81 84 92 96 90 83 84 85 82 81 72 70 70 68 68 64 63 63 54 53 47 50 45 45 45
63 62 78 78 79 86 90 93 95 97 97 88 79 79 79 80 79 74 72 76 74 71 70 66 62 60 56 52 57 49 49 46
69 80 83 88 95 93 93 93 96 96 93 86 79 76 74 74 78 77 74 74 74 66 70 67 64 64 48 52 57 58 53 45
81 82 91 95 95 97 97 96 96 91 89 82 71 70 70 77 77 70 70 72 72 70 68 68 66 69 44 49 60 56 58 59
82 89 96 94 97 98 94 95 90 84 77 68 69 68 64 75 78 74 69 69 66 67 69 66 69 73 66 68 61 59 47 56
86 85 90 85 87 87 81 79 78 74 71 73 68 65 66 62 66 67 64 64 68 68 69 74 72 70 68 76 73 62 61 48
86 89 86 80 80 75 78 75 80 77 77 73 65 64 59 60 61 62 62 66 66 69 69 71 72 71 70 68 76 78 72 60
80 83 81 76 80 64 68 76 72 73 75 73 68 59 56 53 57 61 66 70 68 73 64 74 75 75 75 59 70 74 77 75
85 83 74 79 76 57 66 76 74 80 77 72 68 64 60 57 64 69 68 73 74 75 76 81 80 79 77 78 79 77 73 76
84 87 85 77 58 66 71 71 71 67 69 71 70 73 67 62 59 64 66 65 66 70 71 74 76 79 81 84 83 83 81 84
90 87 73 60 58 68 70 68 67 66 67 64 61 56 61 60 53 59 62 63 64 66 70 74 80 83 82 85 87 83 80 79
79 65 54 64 67 69 63 52 56 63 61 59 58 59 56 51 56 56 57 58 62 64 70 72 76 88 80 79 85 86 75 76

GFSFLT2_sfc_rhum_045.txt.gz
RH
95 90 85 90 88 89 90 89 87 85 83 82 82 82 79 78 75 72 73 71 70 71 71 69 68 69 73 73 79 71 71 72
97 90 88 92 87 90 90 89 88 87 86 86 87 87 84 80 78 73 70 69 71 70 74 71 73 76 76 73 70 68 70 71
94 94 95 94 89 86 88 88 88 86 86 86 88 91 88 80 77 74 70 71 73 75 74 72 70 73 76 71 60 60 60 72
96 92 90 94 75 89 89 82 86 86 86 86 90 89 80 82 80 78 74 72 77 74 72 70 59 58 63 60 58 51 54 72
96 88 96 90 79 93 90 88 86 84 86 87 87 85 84 90 88 82 82 68 64 63 61 60 56 57 58 60 52 50 56 64
93 90 93 90 89 92 89 85 88 87 82 82 90 93 90 84 84 84 75 74 73 72 70 63 58 54 52 53 50 52 54 57
95 90 89 85 87 90 89 92 91 95 92 88 90 91 86 86 85 80 73 73 72 68 65 61 57 51 53 50 50 53 53 57
89 84 82 81 83 89 94 97 97 94 93 94 91 94 95 83 77 74 76 75 72 64 63 60 59 53 54 54 54 55 53 54
86 84 78 81 83 89 97 98 96 95 94 92 88 84 81 76 78 80 82 75 70 68 64 61 59 53 54 54 56 57 54 52
81 75 76 87 94 97 98 98 98 98 96 93 86 82 80 79 79 82 83 76 74 71 66 65 66 62 58 57 60 58 54 51
78 81 88 94 96 97 97 96 98 98 92 91 86 82 80 79 82 87 81 78 77 68 73 67 67 65 56 60 63 62 60 46
78 88 95 96 97 97 98 98 98 97 91 87 83 80 77 82 82 82 79 78 79 74 71 75 72 69 48 57 69 65 64 61
88 94 97 93 94 96 98 98 98 97 93 82 80 77 80 81 82 82 76 72 75 68 72 69 77 77 69 75 74 69 62 62
93 90 95 90 87 97 95 97 96 93 89 83 78 82 81 79 78 75 71 75 71 71 72 80 78 77 75 80 78 72 68 63
89 90 91 88 88 93 96 92 92 91 90 85 84 79 78 74 73 73 71 73 74 74 76 75 76 80 75 72 82 83 82 74
80 87 89 88 88 88 90 88 95 92 87 86 83 79 72 69 69 73 75 79 78 82 77 83 83 81 85 73 76 77 84 91
88 93 90 85 85 90 95 93 90 87 87 83 83 79 73 71 74 77 78 78 74 71 70 78 86 84 85 84 87 90 87 90
96 95 92 85 85 90 93 94 89 90 89 88 85 82 79 74 69 72 69 69 68 69 66 65 74 83 89 92 90 89 91 92
96 95 92 87 80 85 90 90 86 87 84 84 84 76 74 69 66 68 63 63 67 65 65 68 77 82 89 92 94 92 89 90
94 94 91 86 87 87 90 88 81 78 77 78 72 64 64 63 65 69 67 59 62 64 72 82 80 85 82 89 92 94 95 94

GFSFLT2_sfc_rhum_048.txt.gz
RH
98 90 85 89 91 91 91 88 88 85 84 83 82 82 78 75 74 73 73 73 70 69 71 73 75 73 76 79 77 67 69 72
92 91 95 90 90 92 92 91 90 89 88 87 85 84 81 77 76 74 74 73 73 73 76 76 77 76 73 70 65 60 69 72
96 96 94 91 91 90 91 90 89 89 87 87 90 91 85 75 77 76 76 76 75 73 70 70 72 72 67 58 54 58 69 76
92 91 92 92 77 92 92 86 90 89 89 86 90 89 84 82 80 75 79 78 77 72 65 60 56 57 58 53 53 53 58 76
88 82 84 93 83 93 91 90 90 88 89 90 90 84 88 92 85 80 78 67 62 61 59 57 58 55 54 56 55 57 60 58
85 84 80 92 88 91 89 88 90 90 87 87 91 89 92 84 82 78 74 75 71 71 68 61 57 56 55 56 58 58 58 58
89 84 92 93 90 91 90 93 89 90 87 86 91 84 82 84 86 76 77 75 70 69 64 56 56 57 56 55 56 58 57 62
89 93 95 91 90 91 94 95 93 96 94 91 91 93 90 86 83 78 78 73 71 66 54 58 58 57 57 57 59 56 55 63
94 96 89 89 90 90 96 96 96 97 96 96 95 94 91 82 82 83 82 74 69 64 57 62 60 54 56 57 60 56 56 58
90 84 85 89 92 94 97 98 98 97 97 96 93 91 89 81 83 81 79 75 72 68 67 67 66 60 58 62 63 61 56 56
93 92 88 91 95 97 97 98 98 98 97 95 89 83 79 77 74 79 78 78 77 69 72 68 67 64 57 64 66 64 60 47
87 92 94 95 98 98 99 99 99 98 96 92 86 83 78 82 87 85 80 80 78 73 72 76 72 68 49 60 73 66 64 62
89 96 96 97 99 99 99 99 99 98 95 87 85 82 80 83 86 82 81 79 78 71 74 73 77 77 70 74 72 71 66 64
94 94 96 95 94 97 96 98 98 98 95 89 84 83 82 80 82 81 76 77 77 74 74 81 81 79 77 79 78 71 67 65
91 92 94 93 93 93 98 97 96 97 95 90 83 85 82 79 79 78 77 77 77 77 77 75 78 81 80 77 80 79 78 73
87 91 94 92 93 86 92 94 96 97 93 89 80 85 82 79 76 76 78 82 82 82 79 83 79 77 83 74 75 73 80 85
92 94 95 93 92 88 93 95 97 96 93 85 87 86 79 75 78 82 84 82 75 72 73 79 81 83 79 78 84 88 85 87
95 96 95 92 91 94 92 95 96 95 95 89 91 87 85 82 79 76 74 71 71 68 73 70 71 77 79 89 88 87 87 93
95 96 96 93 93 91 88 91 95 91 87 88 87 84 84 78 70 70 69 69 83 79 66 66 69 78 84 90 93 91 87 86
92 95 92 93 92 89 90 93 95 94 90 81 79 76 72 67 78 73 85 78 68 72 71 78 83 84 86 90 88 91 92 91

GFSFLT2_sfc_rhum_051.txt.gz
RH
95 92 87 90 92 89 88 86 85 84 84 82 82 81 76 75 74 74 74 73 74 72 74 76 77 73 69 70 74 66 41 44
95 92 85 83 86 92 91 90 90 89 86 84 84 80 80 78 78 76 73 74 74 76 78 75 71 68 63 63 64 62 39 39
92 88 78 81 91 90 89 89 89 87 81 84 77 52 51 52 71 79 77 76 76 73 70 71 72 66 58 56 52 39 38 38
93 88 84 81 85 83 88 82 74 72 73 76 75 68 58 52 68 81 80 77 74 68 62 58 45 31 32 42 30 35 32 34
89 83 78 79 79 95 93 74 69 73 77 74 76 65 66 58 61 57 58 63 44 42 40 36 44 35 36 37 36 32 28 26
87 84 89 92 91 89 78 72 75 77 67 75 75 68 72 62 55 58 55 48 53 49 43 48 43 42 41 41 40 32 29 28
85 81 73 71 84 80 80 87 72 70 67 71 63 64 74 69 64 60 57 51 47 44 42 38 41 40 38 37 37 40 42 36
69 69 65 72 77 78 77 77 74 73 74 74 76 74 74 66 63 60 53 49 44 41 39 37 36 36 40 40 38 36 42 51
64 64 69 80 79 72 69 68 70 75 83 86 85 80 78 73 61 57 52 52 51 46 46 42 37 34 40 39 35 38 37 50
68 66 76 80 80 72 70 81 80 89 90 89 84 82 78 76 62 59 62 66 56 56 44 42 40 37 39 38 37 34 39 41
70 76 82 83 81 79 79 78 81 81 87 90 84 82 78 72 64 64 70 63 59 48 48 45 43 40 35 40 40 35 36 28
72 76 82 82 80 81 80 84 84 86 86 78 73 67 71 65 64 66 62 54 54 51 52 50 45 43 32 39 45 39 36 37
71 78 82 78 75 82 80 88 90 91 88 80 74 62 62 65 61 62 59 55 55 58 54 55 50 51 45 45 46 49 46 38
68 70 76 75 69 75 72 82 88 86 87 78 76 67 62 64 65 61 60 56 60 58 56 53 52 53 50 50 45 43 43 43
67 66 72 75 71 70 76 81 85 87 86 82 74 68 66 63 66 62 62 57 55 58 57 56 53 56 60 57 45 39 44 44
66 70 74 74 76 71 75 76 80 83 85 78 68 69 74 69 61 62 61 56 59 58 56 59 61 50 57 56 58 51 40 38
75 75 75 76 77 74 80 80 78 85 86 79 73 76 77 65 62 62 62 57 63 63 64 61 57 52 48 48 55 53 57 55
80 76 75 75 78 79 82 81 83 83 82 80 74 71 68 66 59 61 63 62 60 68 83 75 67 72 49 53 48 44 41 48
79 74 74 79 81 83 82 82 81 85 81 80 80 74 67 67 64 66 65 67 72 86 64 65 69 54 58 53 54 51 49 50
74 73 72 76 80 83 84 80 82 81 85 83 77 76 70 68 64 69 71 71 72 71 68 65 71 66 63 63 50 50 52 54

GFSFLT2_sfc_rhum_057.txt.gz
RH
96 90 92 93 90 85 85 85 84 83 83 82 83 81 81 81 82 81 80 78 76 74 72 72 64 65 64 65 61 58 27 28
95 94 93 86 85 86 86 82 88 87 86 86 84 82 80 78 78 80 81 78 75 70 70 66 65 64 64 64 59 54 23 26
94 93 92 92 80 83 82 87 87 86 82 81 69 52 50 43 75 79 78 78 76 70 67 67 67 60 57 49 52 21 20 23
92 88 88 78 73 77 78 75 62 59 55 55 48 56 50 48 70 83 81 78 76 70 66 68 62 25 25 40 22 21 18 21
90 88 82 89 91 90 87 78 63 63 64 58 57 58 57 55 57 53 54 59 36 40 41 33 35 30 29 28 23 20 18 17
81 92 92 93 95 95 95 77 64 58 64 63 60 55 59 58 48 46 46 37 40 39 38 43 39 35 33 32 29 23 20 18
93 92 94 92 90 92 86 63 52 51 57 59 54 51 61 52 50 43 42 39 41 41 41 38 38 34 30 28 27 29 28 22
90 90 92 92 89 88 87 64 51 46 50 57 62 59 61 50 50 43 41 41 39 40 38 38 34 34 33 29 27 25 28 30
89 92 92 86 80 71 67 64 50 47 46 60 54 49 55 52 48 45 44 43 44 44 42 37 35 29 31 28 25 28 28 29
81 74 77 68 65 64 75 48 48 39 42 47 56 51 54 52 48 50 47 47 46 44 42 39 37 33 31 27 27 26 28 28
57 57 58 61 65 63 58 50 46 41 42 49 63 60 55 54 49 50 53 49 48 46 45 47 40 34 29 30 33 28 30 20
47 53 56 59 61 54 46 46 49 42 40 47 59 58 64 60 51 53 54 51 50 47 51 50 45 35 21 26 36 34 31 31
49 55 54 44 45 47 47 46 44 43 42 51 67 66 59 70 60 59 61 52 52 54 54 61 50 39 38 38 40 42 43 34
44 43 42 41 36 38 38 40 39 45 46 52 65 67 58 63 66 62 61 50 56 58 62 61 58 43 44 41 49 42 43 40
40 41 41 42 40 36 36 36 37 38 42 49 69 73 79 87 82 67 59 55 56 60 57 67 55 45 47 46 57 56 47 34
43 41 40 40 42 40 42 39 39 39 46 48 69 85 90 91 83 83 61 56 65 66 59 63 51 47 47 43 60 53 50 48
46 44 41 39 40 44 43 46 40 37 43 52 72 80 80 76 76 76 66 64 68 69 66 59 48 49 65 68 65 53 50 50
47 44 40 38 41 46 52 51 50 42 42 71 76 75 76 73 66 79 81 74 74 70 62 58 62 71 55 63 64 61 47 46
45 42 41 40 45 46 50 53 56 56 63 64 67 72 71 77 69 85 86 84 81 64 72 67 62 62 61 57 69 54 44 37
46 43 44 41 46 51 57 56 60 62 59 58 64 67 78 73 89 88 93 90 82 86 84 61 65 70 73 69 64 44 38 38

GFSFLT2_sfc_rhum_060.txt.gz
RH
96 98 95 95 94 90 88 86 86 86 86 87 89 89 87 83 82 81 79 78 74 69 69 71 66 65 63 66 68 67 47 48
95 94 97 98 96 79 85 90 91 89 87 86 86 86 86 84 82 80 78 76 72 66 68 70 66 61 57 56 59 64 43 50
94 94 95 95 93 94 87 80 88 87 83 81 76 71 74 66 82 82 80 79 74 68 68 68 60 53 56 53 56 36 39 52
93 93 90 89 81 76 82 83 83 72 66 65 58 71 65 74 83 83 81 79 76 72 70 66 58 42 44 50 37 36 39 61
96 91 86 84 88 86 83 84 85 71 72 68 73 68 72 77 73 71 76 70 51 59 65 55 55 51 50 49 43 35 40 46
94 97 95 93 89 90 92 90 78 76 76 74 77 71 69 69 70 71 66 62 57 62 67 60 53 47 46 43 42 44 44 45
96 93 94 92 93 93 95 96 84 76 74 70 73 74 77 70 70 64 62 64 64 63 63 58 54 48 45 40 40 40 39 48
94 92 91 90 92 92 91 90 76 69 71 70 71 74 80 72 74 67 67 65 64 64 62 60 58 50 45 40 38 41 42 46
93 93 91 91 91 91 88 82 65 67 72 72 71 72 74 70 73 73 69 67 63 65 61 59 55 48 48 43 42 38 41 40
86 84 88 87 88 84 79 61 72 63 70 73 73 70 72 75 73 74 70 70 70 68 64 63 63 57 53 48 43 41 38 37
75 80 79 78 80 72 72 74 67 60 60 66 74 71 74 76 74 73 76 73 73 70 66 67 66 59 49 50 51 50 42 30
70 71 73 72 70 63 66 84 59 64 64 68 74 73 72 76 74 77 76 74 75 72 71 69 67 58 34 40 58 54 51 51
64 69 72 67 66 68 70 68 65 67 64 64 78 77 78 84 79 81 78 77 74 75 76 72 68 57 55 61 65 64 62 57
59 61 63 62 61 59 60 57 59 61 60 64 77 82 80 78 85 87 81 89 78 78 75 76 73 67 66 70 74 76 68 62
55 57 59 60 55 50 51 54 57 56 60 64 77 85 89 83 86 90 91 87 81 81 78 72 70 72 62 73 79 80 72 62
53 54 53 52 51 46 52 50 51 53 59 59 71 84 86 87 89 91 94 94 95 86 71 74 77 73 72 62 71 67 68 68
52 50 47 48 49 54 61 56 54 58 62 66 83 90 88 86 90 92 93 96 91 86 89 84 78 79 74 78 71 70 76 75
54 52 49 48 49 55 62 64 63 58 60 69 81 89 88 88 85 89 90 91 92 94 96 94 96 90 76 70 70 70 72 66
55 53 51 50 53 56 58 64 71 64 67 80 88 89 91 88 88 87 93 94 96 97 97 94 93 94 89 75 72 70 65 64
52 50 51 49 52 55 66 66 68 77 87 79 84 85 89 88 90 92 92 95 96 94 94 97 97 95 77 81 81 77 69 66

GFSFLT2_sfc_rhum_063.txt.gz
RH
98 95 96 96 98 92 90 89 90 88 88 86 88 88 84 83 81 80 79 76 70 66 67 69 67 66 65 68 73 68 60 60
98 97 96 97 94 94 87 90 91 92 93 92 90 87 85 84 82 80 77 73 68 64 68 64 61 58 56 60 68 70 63 66
96 96 94 95 94 91 89 81 91 90 89 90 90 86 78 78 82 80 78 75 72 69 66 62 59 53 57 66 57 60 65 67
95 95 93 87 84 87 90 89 87 78 79 80 85 79 80 79 84 83 79 76 74 70 65 61 54 48 50 54 46 65 74 80
95 93 88 86 84 79 74 79 88 78 75 75 76 81 83 81 80 82 81 71 63 64 60 55 57 54 49 47 47 58 76 81
94 91 87 82 78 76 85 84 89 86 76 78 79 79 73 73 73 73 65 62 56 65 70 59 52 48 44 44 45 52 63 80
96 93 95 92 93 90 90 93 92 83 82 78 76 75 72 74 73 70 68 68 63 72 62 60 53 51 47 43 42 47 51 67
95 95 92 88 91 89 92 89 86 79 78 76 80 81 72 76 74 68 70 72 70 69 64 64 61 49 44 41 43 45 56 61
95 94 89 87 87 89 91 82 71 72 83 75 79 79 77 77 79 78 76 73 69 68 68 69 61 52 46 45 41 44 46 59
89 88 88 84 87 87 85 67 71 63 84 84 75 75 76 78 81 80 78 76 71 75 69 69 63 60 55 50 49 45 40 40
90 89 86 80 81 76 71 69 78 53 85 84 74 73 76 79 78 80 76 78 75 73 73 71 72 67 54 56 54 51 43 35
87 81 80 78 78 69 77 90 88 80 76 80 80 78 80 79 80 83 80 78 81 77 72 74 76 65 38 46 57 60 52 54
85 86 82 77 78 75 72 78 82 80 79 69 80 81 79 85 84 88 85 79 82 76 77 78 75 68 60 58 64 64 59 60
81 79 80 73 71 66 68 71 76 71 74 74 84 81 86 84 84 89 90 92 84 83 81 82 75 71 63 66 68 79 76 66
74 73 73 66 63 64 69 71 73 75 72 70 86 86 86 87 89 90 94 92 90 85 78 75 77 78 73 69 79 78 80 75
66 68 70 66 62 64 68 69 66 66 74 73 88 89 90 92 95 95 95 90 89 89 85 82 81 88 93 74 72 69 76 78
62 64 62 60 64 66 66 63 61 61 63 73 83 92 92 92 91 95 95 97 95 94 92 94 97 98 98 95 93 94 89 79
59 62 59 58 61 63 63 58 64 66 65 71 83 91 90 93 93 96 96 97 97 97 97 97 98 98 97 97 94 92 87 75
58 59 60 57 58 56 58 65 60 65 72 76 93 96 97 96 96 98 97 97 96 96 97 98 98 97 96 97 94 86 80 84
58 56 56 54 55 55 55 61 74 75 78 86 85 92 94 95 96 97 97 96 98 98 97 96 95 97 95 92 91 92 86 81

GFSFLT2_sfc_rhum_069.txt.gz
RH
95 94 91 90 87 93 94 86 88 86 84 85 85 84 82 80 78 76 73 68 68 67 75 80 80 79 80 80 80 76 80 75
98 98 96 97 96 95 97 91 91 87 87 88 88 85 83 80 77 73 67 66 67 68 74 76 80 80 80 80 80 76 81 80
98 97 96 95 95 96 94 97 93 90 90 90 88 88 81 77 74 72 68 71 68 69 72 80 80 80 80 80 74 81 82 85
98 97 96 95 92 94 94 96 95 94 90 89 90 85 81 75 78 74 70 69 72 72 67 71 73 76 78 78 83 84 87 89
98 95 92 90 94 94 95 95 98 98 94 91 84 83 84 80 79 82 71 62 54 58 55 50 54 66 77 87 89 91 95 89
96 95 94 91 84 83 84 94 98 98 96 84 82 85 84 83 74 74 62 64 61 65 65 60 55 64 73 82 88 94 97 94
97 93 93 90 89 80 94 96 94 92 92 79 75 76 74 77 76 68 64 72 69 66 63 60 55 54 61 71 83 90 93 97
96 94 93 93 89 90 95 93 91 91 88 74 73 70 73 69 73 70 67 74 74 70 62 61 54 52 55 57 67 83 89 93
97 96 96 89 89 94 95 91 86 86 82 77 75 72 66 69 75 75 74 76 75 73 69 66 60 50 50 56 59 64 74 82
96 94 96 96 97 96 95 86 89 80 81 77 74 72 73 74 74 75 80 80 79 77 77 75 67 59 56 55 60 60 60 65
96 97 96 92 85 86 85 80 79 79 87 75 81 75 77 71 73 81 84 86 84 79 82 77 74 70 60 61 59 60 64 56
92 94 93 93 84 84 82 88 75 78 84 83 82 77 81 80 84 88 87 86 85 83 77 82 77 74 51 53 62 62 57 63
90 91 88 80 82 86 81 77 73 79 78 80 84 83 86 89 89 92 89 84 79 81 81 80 86 84 70 68 68 64 62 60
86 82 80 72 72 71 69 62 73 79 77 76 84 85 89 90 92 93 91 92 86 86 83 88 84 85 76 72 70 70 80 68
92 84 83 79 80 70 70 69 70 72 75 78 83 87 89 90 90 92 94 93 90 87 84 78 82 86 70 70 83 76 76 74
95 93 92 85 85 82 76 66 59 58 68 69 75 88 90 91 90 91 95 93 90 90 86 90 90 94 95 89 88 83 84 82
95 91 89 83 86 82 82 80 73 72 76 79 83 90 92 93 94 94 93 95 93 93 94 92 91 96 96 99 96 97 94 94
93 90 86 83 82 83 80 78 76 77 87 83 80 90 91 94 93 94 94 96 96 95 93 93 93 95 96 97 95 97 98 98
90 89 87 82 80 78 77 73 76 78 77 82 73 74 92 91 93 93 95 95 96 98 98 96 96 96 96 95 95 94 95 94
84 84 83 79 78 76 73 69 72 79 87 84 88 82 82 85 95 92 94 96 98 98 98 98 98 97 98 97 97 97 91 86